Other Public Products
Issued by NWS Grand Forks, ND

Home | Current Version | Previous Version | Text Only | Print | Product List | Glossary Off
Versions: 1 2 3 4 5 6 7 8 9 10 11 12 13 14 15 16 17 18 19 20 21 22 23 24 25 26 27 28 29 30 31 32 33 34 35 36 37 38 39 40 41 42 43 44 45 46 47 48 49 50

000
FPUS83 KFGF 020431
OPUFGF
PRAIRIE TO PINES WEATHER ROUNDUP
NATIONAL WEATHER SERVICE EASTERN NORTH DAKOTA/GRAND FORKS ND
1100 PM CDT WED OCT 01 2014

 **SATELLITE DATA USED TO AUGMENT SKY COVER AT AUTOMATED STATIONS**
 *****  WEATHER ACROSS EASTERN NORTH DAKOTA  *****

CITY           SKY/WX    TMP DP  RH WIND       PRES   REMARKS
GRAND FORKS    CLOUDY    59  51  75 W8        29.74R
GRAND FORKS AF CLOUDY    59  53  81 W9        29.75R
GRAND CITY NWS   N/A     57 N/A N/A NW5         N/A
BUXTON           N/A     58  55  90 W8          N/A
DEVILS LAKE    CLEAR     52  43  71 W9        29.77R
FARGO          CLOUDY    60  51  72 W9        29.78R
WAHPETON ARPT  PTCLDY    54  45  71 SW7       29.81S
$$

 *****  WEATHER ACROSS CENTRAL AND WESTERN NORTH DAKOTA  *****

CITY           SKY/WX    TMP DP  RH WIND       PRES   REMARKS
JAMESTOWN      CLEAR     52  47  83 W10       29.82R
BISMARCK       CLOUDY    56  47  71 NW7       29.85S
MINOT          CLOUDY    50  45  83 SW9       29.80R
MINOT AFB      CLOUDY    49  49  99 SW7       29.80R
GARRISON         N/A     48  45  89 W7        29.84R
WILLISTON      PTCLDY    48  43  82 W7        29.85S
DICKINSON      PTCLDY    45  41  86 W6        29.88S
HETTINGER      PTCLDY    44  40  85 W3        29.93R
$$

 *****  OTHER OBSERVATIONS NORTHEAST NORTH DAKOTA  *****

CITY           SKY/WX    TMP DP  RH WIND       PRES   REMARKS
WALHALLA         N/A     54  50  87 W6        29.73S
LANGDON        CLOUDY    50  46  87 W12       29.74S
CAVALIER       CLOUDY    57  48  72 W10       29.73S
GRAFTON        CLOUDY    57  50  77 W10       29.74R
CANDO          FAIR      46  45  93 W8        29.78R
FORT TOTTEN    NOT AVBL
ROLLA          FAIR      46  46 100 SW8       29.77R
RUGBY          FAIR      46  46 100 SW9       29.79R
 ***** THE ABOVE OBSERVATIONS ARE NON NWS ARE NOT QUALITY
        CONTROLLED AND MAY MIS-REPORT RAIN FOR SNOW...
$$

 *****  OTHER OBSERVATIONS SOUTHEAST NORTH DAKOTA *****

CITY           SKY/WX    TMP DP  RH WIND       PRES   REMARKS
COOPERSTOWN    NOT AVBL
VALLEY CITY    MOCLDY    54  54 100 W9        29.81R
OAKES            N/A     54  50  87 W7        29.84R
GWINNER        CLOUDY    55  52  88 W7        29.83R
SHEYENNE NWR     N/A     57  51  80 W5        29.95S
BUFFALO          N/A     56  47  72 SW6         N/A
WYNDMERE         N/A     54  50  87 W3          N/A
 ***** THE ABOVE OBSERVATIONS ARE NON NWS ARE NOT QUALITY
       CONTROLLED AND MAY MIS-REPORT RAIN FOR SNOW...
$$

  *****  WEATHER ACROSS NORTHERN MINNESOTA  *****

CITY           SKY/WX    TMP DP  RH WIND       PRES   REMARKS
FLAG ISLAND    CLOUDY    57  52  82 SW9       29.66R
WARROAD        MOCLDY    55  52  88 SW7       29.70R
ROSEAU         PTCLDY    55  50  82 SW9       29.71R
HALLOCK        CLOUDY    57  50  77 W6        29.72R
THF RVR FALLS  CLOUDY    57  52  82 SW6       29.75R
HALSTAD          N/A     58  50  73 W8          N/A
FOSSTON        CLOUDY    55  50  82 SW7       29.78R
BAUDETTE       CLOUDY    57  53  86 SW9       29.70R
WASKISH        CLOUDY    57  54  88 CALM      29.74S
CROOKSTON      CLOUDY    57  52  82 W6        29.76R
$$
  *****  WEATHER ACROSS CENTRAL AND WEST MINNESOTA  *****

CITY           SKY/WX    TMP DP  RH WIND       PRES   REMARKS
BEMIDJI        CLOUDY    57  52  84 SW6       29.77R
PARK RAPIDS    MOCLDY    55  50  83 SW7       29.79R
WADENA         FAIR      46  46 100 CALM      29.80S
DETROIT LAKES  PTCLDY    55  50  82 SW5       29.81S
MOORHEAD       NOT AVBL
FERGUS FALLS   PTCLDY    54  46  76 SW3       29.82R
ELBOW LAKE     FAIR      50  47  92 W5        29.82S
MORRIS MN      CLEAR     52  48  87 CALM      29.82S
STAPLES        PTCLDY    52  50  93 S5        29.81S FOG
WHEATON        CLEAR     52  46  82 SW5       29.85S
$$
  *****  WEATHER ELSEWHERE ACROSS MINNESOTA  *****

CITY           SKY/WX    TMP DP  RH WIND       PRES   REMARKS
DULUTH         FOG       52  50  93 SW7       29.83R VSB 1/4
INTRNTL FALLS  CLOUDY    54  52  93 VRB6      29.73S
ELY            CLOUDY    48  48 100 SW7       29.80R
CLOQUET        CLOUDY    52  50  93 SW5       29.83R FOG
BRAINERD       CLOUDY    53  53 100 S8        29.82R FOG
HIBBING        CLOUDY    51  50  96 CALM      29.80S FOG
ALEXANDRIA     PTCLDY    53  49  86 W5        29.83R
SAINT CLOUD    CLOUDY    59  55  87 S5        29.84R FOG
MINNEAPOLIS    CLOUDY    58  57  97 E6        29.83S FOG
$$

  *****  WEATHER ACROSS SOUTH DAKOTA  *****

CITY           SKY/WX    TMP DP  RH WIND       PRES   REMARKS
SIOUX FALLS    PTCLDY    54  51  90 NW5       29.82R
BROOKINGS      NOT AVBL
WATERTOWN      MOCLDY    52  47  83 CALM      29.85S
HURON          PTCLDY    49  46  90 W6        29.86R
SISSETON         N/A     48  46  93 W5        29.82R
ABERDEEN       PTCLDY    53  47  79 W9        29.85R
MITCHELL       CLEAR     57  48  72 NW8       29.87R
PIERRE         CLOUDY    50  45  83 NW9       29.89S
MOBRIDGE       PTCLDY    52  47  83 NW6       29.87R
RAPID CITY     CLOUDY    50  43  77 W3        29.98R
$$

  *****  SOME WEATHER IN NEARBY STATES *****

CITY           SKY/WX    TMP DP  RH WIND       PRES   REMARKS
GLASGOW MT     CLEAR     44  34  67 S6        29.85S
GREAT FALLS MT PTCLDY    45  31  58 SW13      29.92R
CHEYENNE WY    MOCLDY    40  36  86 N10       30.07R
SCOTTSBLUFF NE CLOUDY    46  44  93 NW3       30.02R
OMAHA NE       MOCLDY    64  61  90 CALM      29.79R
DES MOINES IA  PTCLDY    62  60  93 CALM      29.80S FOG
DAVENPORT IA   NOT AVBL
CHICAGO IL     CLOUDY    65  51  60 SE10      29.90F
EAU CLAIRE WI  CLOUDY    54  53  97 N3        29.85R FOG
LA CROSSE WI   CLOUDY    61  57  87 CALM      29.83F
$$

  *****  SOME NATIONAL WEATHER *****

CITY           SKY/WX    TMP DP  RH WIND       PRES   REMARKS
LA GUARDIA NY  CLOUDY    61  57  87 NE9       30.08S
RALEIGH NC     PTCLDY    64  62  93 CALM      30.06R
ATLANTA GA     PTCLDY    70  61  73 CALM      30.04R
NEW ORLEANS LA PTCLDY    79  75  87 SE8       29.94S
OKLAHOMA CITY  PTCLDY    79  66  64 S13G21    29.74R
ALBUQUERQUE NM MOCLDY    67  34  29 N13       29.99R
SALT LAKE CITY PTCLDY    46  38  73 S7        30.20R
LOS ANGELES CA CLEAR     67  63  87 W6        29.85R
BOISE ID       CLEAR     50  36  58 CALM      30.14F
SEATTLE WA     MOCLDY    59  46  62 NE10      30.19R
$$

*** WEATHER ACROSS MANITOBA...SASKATCHEWAN AND ONTARIO ***
                ***ONTARIO***

CITY           SKY/WX    TMP DP  RH WIND       PRES   REMARKS
GERALDTON      LGT RAIN  52  50  93 S15       29.80F
THUNDER BAY    CLOUDY    50  50 100 E2        29.82S FOG
SIOUX LOOKOUT  CLOUDY    52  50  93 S9        29.67S
TORONTO        CLOUDY    61  57  88 SE7       30.10S
BIG TROUT LK   CLOUDY    55  50  82 S14G22    29.49F
PICKLE LAKE    NOT AVBL
DRYDEN         CLOUDY    54  52  94 S15       29.66S
KENORA         LGT RAIN  55  54  94 SW9       29.65S
$$
                *** MANITOBA***

CITY           SKY/WX    TMP DP  RH WIND       PRES   REMARKS
BRANDON        PTCLDY    46  45  93 W9        29.72R
DAUPHIN        CLEAR     48  45  87 W10       29.66R
ISLAND LAKE    CLOUDY   N/A N/A N/A SW9         N/A
PILOT MOUND      N/A     52  46  82 W9          N/A
THE PAS        CLOUDY    45  43  93 W14G24    29.57R
THOMPSON       DRIZZLE   48  48 100 NW12G18   29.35R
WINNIPEG       MOCLDY    55  48  76 W13       29.67R
LYNN LAKE      CLOUDY    45  43  93 NW15G22   29.46S
CHURCHILL      LGT RAIN  41  41 100 E8        29.31F FOG
GILLAM         LGT RAIN  52  52 100 W8        29.26  VSB 3/4
$$
                ***SASKATCHEWAN***

CITY           SKY/WX    TMP DP  RH WIND       PRES   REMARKS
ESTEVAN        PTCLDY    46  43  87 SW6       29.81R
KINDERSLEY     LGT RAIN  41  37  87 NW28G38   29.81R
LLOYDMINSTER   CLOUDY    43  36  75 W13       29.74S
PRINCE ALBERT    N/A     39  37  93 W5        29.66S
REGINA         PTCLDY    39  37  93 W9        29.77S


USA.gov is the U.S. government's official web portal to all federal, state and local government web resources and services.